User: anonymous   Login
Location: Home
(42.5358°N, 72.7383°W)
Time: 19:21:21
(UTC-05:00)
Language:

A-11 Canister half - Orbit

View from above orbital plane
View from above orbital plane
View from above satellite
View from above satellite

Ground track
Ground track

The orbit data is extracted from the following two-line orbital elements,

1 00053U 60009E   21333.52382324 -.00000146  00000-0 -60862-3 0  9992
2 00053  47.2780  64.3153 0100444 207.1936 152.3569 12.17266213733130
Epoch (UTC): 29 November 2021 12:34:18
Eccentricity: 0.0100444
inclination: 47.2780°
perigee height: 1524 km
apogee height: 1684 km
right ascension of ascending node: 64.3153°
argument of perigee: 207.1936°
revolutions per day: 12.17266213
mean anomaly at epoch: 152.3569°
orbit number at epoch: 73313

The dashed part of the orbit path shows where the satellite is in the earth's shadow,  

DLR